FLOCK 2K-27 (42882 NORAD) Tracking and Keplerian Element Data

This shows tracking and keplerian element data for the satellite.

Feedback or suggestion? Click here.




ElementValue
Catalog42882
NameFLOCK 2K-27
Epoch Orbit15576
Epoch Day114.90937434
Epoch Year2020
RAAN346.5882
Inclination96.8978
Eccentricity0.0010924
Argument of Perigee149.4457
Mean Anonmoly210.7431
Mean Motion15.43402498
Decay Rate6.179E-05
L11 42882U 17042BK 20114.90937434 .00006179 00000-0 13987-3 0 9999
L22 42882 96.8978 346.5882 0010924 149.4457 210.7431 15.43402498155761



Live tracking and technical data element details for FLOCK 2K-27 (NORAD 42882). FLOCK 2K-27 can be tracked NOW for your location showing map with azimuth and elevation plus other details from your city location.







IsCatalogInMostPopularTable: catalog: 42882, numindb: 600
Update: records affected: 1



GetName: 42882 FLOCK 2K-27

Hit Count: updated at: Fri, 14 Jun 2024 19:19:20 GMT